N5VIS Weather Reports


time (UTC)temp
F
wind
direction
speed
knots
gust
knots
rain 1hr
in
rain 24hr
in
rain mn
in
humidity
%
barometer
mb
20260504050743 67 181 0.9 2.6 0.00 0.00 0.00 67 1019.6
20260504050242 66 189 1.7 3.5 0.00 0.00 0.00 67 1019.6
20260504045739 65 158 0.0 0.0 0.00 0.00 0.00 73 1019.6
20260504045238 64 165 0.0 0.9 0.00 0.00 0.00 77 1019.5
20260504044736 65 5 0.0 0.0 0.00 0.00 0.00 75 1019.3
20260504044234 65 138 0.0 0.0 0.00 0.00 0.00 72 1019.3
20260504043731 68 147 0.0 0.9 0.00 0.00 0.00 69 1019.3
20260504043228 68 169 2.6 2.6 0.00 0.00 0.00 65 1019.4
20260504042725 68 196 0.0 2.6 0.00 0.00 0.00 68 1019.1
20260504042222 68 159 0.0 2.6 0.00 0.00 0.00 68 1019.3
20260504041718 68 220 0.9 2.6 0.00 0.00 0.00 67 1019.3
20260504041214 68 210 0.9 3.5 0.00 0.00 0.00 66 1019.1
20260504040711 68 229 0.9 1.7 0.00 0.00 0.00 66 1018.9
20260504040208 68 171 1.7 1.7 0.00 0.00 0.00 65 1019.1
20260504035703 68 246 0.0 1.7 0.00 0.00 0.00 64 1019.2
20260504035201 69 205 0.0 2.6 0.00 0.00 0.00 63 1019.3
20260504034659 69 146 0.9 3.5 0.00 0.00 0.00 62 1019.1
20260504034155 69 246 1.7 2.6 0.00 0.00 0.00 61 1019.1
20260504033653 69 155 0.9 3.5 0.00 0.00 0.00 61 1018.9
20260504033150 67 247 0.0 1.7 0.00 0.00 0.00 63 1019.2
20260504032647 66 197 0.0 0.9 0.00 0.00 0.00 66 1018.9
20260504032144 0 0.0 0.0 0.00 0.00 0.00 1019.2
20260504031641 65 122 0.0 0.0 0.00 0.00 0.00 70 1019.0
20260504031137 65 122 0.0 0.0 0.00 0.00 0.00 70 1019.2
20260504030634 0 0.0 0.0 0.00 0.00 0.00 1019.3
20260504030131 65 120 0.0 0.0 0.00 0.00 0.00 68 1019.2
20260504025628 65 120 0.0 0.0 0.00 0.00 0.00 68 1019.1
20260504025125 65 188 0.0 0.0 0.00 0.00 0.00 69 1019.2
20260504024622 65 188 0.0 0.0 0.00 0.00 0.00 69 1019.4
20260504024118 65 212 0.0 0.0 0.00 0.00 0.00 68 1019.2
20260504023615 65 212 0.0 0.0 0.00 0.00 0.00 68 1019.0
20260504023111 65 139 0.0 0.9 0.00 0.00 0.00 69 1019.3
20260504022608 65 139 0.0 0.9 0.00 0.00 0.00 69 1019.1
20260504022103 0 0.0 0.0 0.00 0.00 0.00 1019.2
20260504021602 0 0.0 0.0 0.00 0.00 0.00 1019.1
20260504021058 0 0.0 0.0 0.00 0.00 0.00 1018.9
20260504020555 0 0.0 0.0 0.00 0.00 0.00 1018.7
20260504020051 0 0.0 0.0 0.00 0.00 0.00 1018.7
20260504015548 0 0.0 0.0 0.00 0.00 0.00 1018.7
20260504015044 0 0.0 0.0 0.00 0.00 0.00 1018.7
20260504014540 0 0.0 0.0 0.00 0.00 0.00 1018.7
20260504014038 0 0.0 0.0 0.00 0.00 0.00 1018.4
20260504013535 0 0.0 0.0 0.00 0.00 0.00 1018.5
20260504013032 0 0.0 0.0 0.00 0.00 0.00 1018.5
20260504012529 0 0.0 0.0 0.00 0.00 0.00 1018.5
20260504012027 0 0.0 0.0 0.00 0.00 0.00 1018.4
20260504011523 65 190 0.0 0.0 0.00 0.00 0.00 65 1018.4
20260504011020 65 190 0.0 0.0 0.00 0.00 0.00 65 1018.3
20260504010515 65 12 0.0 0.0 0.00 0.00 0.00 63 1018.3
20260504010011 65 12 0.0 0.0 0.00 0.00 0.00 63 1018.2
20260504005509 66 22 0.0 0.0 0.00 0.00 0.00 61 1018.2
20260504005006 66 22 0.0 0.0 0.00 0.00 0.00 61 1018.0
20260504004504 67 71 0.0 0.0 0.00 0.00 0.00 59 1018.3
20260504004000 67 67 0.0 0.0 0.00 0.00 0.00 58 1018.2
20260504003456 68 54 0.0 0.0 0.00 0.00 0.00 55 1018.1
20260504002954 69 82 0.0 0.0 0.00 0.00 0.00 54 1018.2
20260504002450 69 140 0.0 0.0 0.00 0.00 0.00 53 1018.1
20260504001948 69 36 0.0 0.9 0.00 0.00 0.00 54 1018.0
20260504001445 70 119 0.0 0.0 0.00 0.00 0.00 53 1017.9
20260504000942 70 234 0.9 0.9 0.00 0.00 0.00 51 1017.9
20260504000439 70 270 0.0 0.0 0.00 0.00 0.00 50 1018.0
20260503235936 70 270 0.0 0.0 0.00 0.00 0.00 50 1018.0
20260503235434 71 69 0.0 0.9 0.00 0.00 0.00 50 1017.8
20260503234931 71 240 0.9 1.7 0.00 0.00 0.00 49 1017.8
20260503234428 71 230 0.9 0.9 0.00 0.00 0.00 48 1018.0
20260503233926 72 1 0.0 0.0 0.00 0.00 0.00 49 1017.9
20260503233423 72 149 0.9 1.7 0.00 0.00 0.00 48 1017.9
20260503232919 0 0.0 0.0 0.00 0.00 0.00 1017.8
20260503232416 73 225 0.0 0.9 0.00 0.00 0.00 46 1018.1
20260503231914 73 225 0.0 0.9 0.00 0.00 0.00 46 1018.0
20260503231411 73 125 0.9 2.6 0.00 0.00 0.00 46 1018.1
20260503230907 73 125 0.9 2.6 0.00 0.00 0.00 46 1018.0
20260503230404 73 171 0.0 1.7 0.00 0.00 0.00 46 1017.7
20260503225902 73 171 0.0 1.7 0.00 0.00 0.00 46 1017.8
20260503225357 0 0.0 0.0 0.00 0.00 0.00 1017.8
20260503224854 74 203 1.7 2.6 0.00 0.00 0.00 47 1017.6
20260503224351 74 203 1.7 2.6 0.00 0.00 0.00 47 1017.8
20260503223849 0 0.0 0.0 0.00 0.00 0.00 1017.6
20260503223347 0 0.0 0.0 0.00 0.00 0.00 1017.6
20260503222842 77 245 2.6 3.5 0.00 0.00 0.00 34 1017.8
20260503222341 77 216 2.6 3.5 0.00 0.00 0.00 34 1017.7
20260503221838 77 201 1.7 2.6 0.00 0.00 0.00 35 1017.7
20260503221337 77 239 0.9 5.2 0.00 0.00 0.00 36 1017.6
20260503220832 78 228 3.5 5.2 0.00 0.00 0.00 36 1018.0
20260503220329 78 271 1.7 1.7 0.00 0.00 0.00 35 1017.7
20260503215826 77 89 0.9 2.6 0.00 0.00 0.00 39 1017.8
20260503215323 77 56 0.0 2.6 0.00 0.00 0.00 37 1018.0
20260503214821 78 220 0.9 1.7 0.00 0.00 0.00 37 1018.0
20260503214318 78 220 0.9 1.7 0.00 0.00 0.00 37 1017.9
20260503213815 79 221 3.5 3.5 0.00 0.00 0.00 34 1017.8
20260503213313 78 5 0.9 1.7 0.00 0.00 0.00 34 1018.0
20260503212810 78 238 1.7 5.2 0.00 0.00 0.00 33 1018.1
20260503212308 78 249 0.9 3.5 0.00 0.00 0.00 32 1018.0
20260503211805 78 243 2.6 3.5 0.00 0.00 0.00 31 1018.4
20260503211301 79 192 3.5 5.2 0.00 0.00 0.00 33 1018.4
20260503210801 79 225 0.9 3.5 0.00 0.00 0.00 33 1018.4
20260503210259 78 282 2.6 2.6 0.00 0.00 0.00 33 1018.4
20260503205754 78 235 4.3 6.1 0.00 0.00 0.00 36 1018.5
20260503205250 77 78 0.9 2.6 0.00 0.00 0.00 36 1018.5
20260503204747 78 191 1.7 7.0 0.00 0.00 0.00 34 1018.6
20260503204245 78 286 1.7 3.5 0.00 0.00 0.00 34 1018.5
20260503203742 78 314 2.6 5.2 0.00 0.00 0.00 33 1018.5
20260503203239 77 298 1.7 2.6 0.00 0.00 0.00 32 1018.6
20260503202736 77 255 3.5 3.5 0.00 0.00 0.00 33 1018.7
20260503202234 78 235 1.7 5.2 0.00 0.00 0.00 33 1018.7
20260503201732 78 312 3.5 6.1 0.00 0.00 0.00 33 1018.9
20260503201229 78 13 0.9 5.2 0.00 0.00 0.00 33 1018.8
20260503200726 78 354 1.7 2.6 0.00 0.00 0.00 33 1018.8
20260503200222 78 210 3.5 5.2 0.00 0.00 0.00 33 1018.8
20260503195719 77 319 1.7 2.6 0.00 0.00 0.00 34 1019.2
20260503195216 78 207 1.7 3.5 0.00 0.00 0.00 30 1019.4
20260503194713 77 153 4.3 7.8 0.00 0.00 0.00 31 1019.5
20260503194209 78 226 1.7 3.5 0.00 0.00 0.00 32 1019.6
20260503193705 78 62 0.9 6.1 0.00 0.00 0.00 34 1019.6
20260503193201 78 279 1.7 3.5 0.00 0.00 0.00 34 1019.7
20260503192657 78 295 1.7 3.5 0.00 0.00 0.00 35 1019.9
20260503192152 78 270 0.9 2.6 0.00 0.00 0.00 33 1019.7
20260503191649 78 319 1.7 2.6 0.00 0.00 0.00 33 1019.9
20260503191147 77 157 0.9 2.6 0.00 0.00 0.00 34 1020.2
20260503190643 77 197 1.7 5.2 0.00 0.00 0.00 35 1020.2
20260503190140 77 335 0.9 5.2 0.00 0.00 0.00 38 1020.2
20260503185637 78 208 3.5 6.1 0.00 0.00 0.00 33 1020.4
20260503185132 77 353 0.9 7.0 0.00 0.00 0.00 34 1020.4
20260503184627 77 171 2.6 6.1 0.00 0.00 0.00 31 1020.5
20260503184124 76 325 1.7 6.1 0.00 0.00 0.00 35 1020.5
20260503183621 77 97 2.6 3.5 0.00 0.00 0.00 32 1020.5
20260503183118 76 184 1.7 6.1 0.00 0.00 0.00 35 1020.8
20260503182616 76 187 0.9 3.5 0.00 0.00 0.00 34 1020.9
20260503182114 76 333 0.9 6.1 0.00 0.00 0.00 35 1020.9
20260503181611 76 352 0.9 3.5 0.00 0.00 0.00 36 1020.9
20260503181107 77 125 1.7 2.6 0.00 0.00 0.00 33 1020.8
20260503180604 75 245 1.7 3.5 0.00 0.00 0.00 36 1020.7
20260503175559 76 204 2.6 5.2 0.00 0.00 0.00 35 1020.9
20260503175056 75 188 1.7 2.6 0.00 0.00 0.00 35 1020.9
20260503174553 76 276 1.7 3.5 0.00 0.00 0.00 33 1020.9
20260503174049 75 294 4.3 6.1 0.00 0.00 0.00 37 1020.9
20260503173544 75 138 3.5 6.1 0.00 0.00 0.00 36 1020.8
20260503173041 75 98 1.7 6.1 0.00 0.00 0.00 34 1021.0
20260503172539 75 82 0.9 5.2 0.00 0.00 0.00 37 1021.1
20260503172036 74 209 3.5 9.6 0.00 0.00 0.00 38 1021.1
20260503171532 75 354 3.5 6.1 0.00 0.00 0.00 36 1021.3
20260503171030 75 288 1.7 7.0 0.00 0.00 0.00 36 1021.3
20260503170526 75 42 2.6 8.7 0.00 0.00 0.00 36 1021.2
20260503150918 71 127 2.6 3.5 0.00 0.00 0.00 46 1022.2
20260503150415 71 242 2.6 5.2 0.00 0.00 0.00 46 1022.3
20260503131308 0 0.0 0.0 0.00 0.00 0.00 1021.4
20260503130805 0 0.0 0.0 0.00 0.00 0.00 1021.4
20260503130303 0 0.0 0.0 0.00 0.00 0.00 1021.1
20260503110656 57 22 0.9 1.7 0.00 0.00 0.00 78 1020.3
20260503110154 56 45 0.0 0.9 0.00 0.00 0.00 78 1020.7
20260503100120 53 79 0.0 0.0 0.00 0.00 0.00 85 1020.2
20260503081510 59 326 0.0 1.7 0.00 0.00 0.00 68 1019.6
20260503081007 59 217 0.0 5.2 0.00 0.00 0.00 68 1019.5
20260503080503 59 356 0.0 0.9 0.00 0.00 0.00 69 1019.5
20260503072939 59 4 0.0 0.9 0.00 0.00 0.00 69 1019.4
20260503072437 60 272 0.0 0.0 0.00 0.00 0.00 68 1019.6
20260503071934 60 275 0.0 2.6 0.00 0.00 0.00 67 1019.4
20260503071431 61 262 1.7 2.6 0.00 0.00 0.00 66 1019.3
20260503070926 61 304 0.0 3.5 0.00 0.00 0.00 65 1019.6
20260503070424 60 324 1.7 2.6 0.00 0.00 0.00 66 1019.4